DW5256 Weather Reports


time (UTC)temp
F
wind
direction
speed
knots
gust
knots
rain 1hr
in
rain 24hr
in
rain mn
in
humidity
%
barometer
mb
20260906193529 84 343 1.7 7.0 0.00 0.00 0.00 62 1011.1
20260906192018 83 360 0.9 5.2 0.00 0.00 0.00 63 1011.3
20260906190515 82 339 0.9 5.2 0.00 0.00 0.00 62 1011.4
20260906185024 81 309 0.9 1.7 0.00 0.00 0.00 64 1011.6
20260906183520 80 307 0.0 2.6 0.00 0.00 0.00 66 1011.8
20260906182024 79 303 0.9 3.5 0.00 0.00 0.00 66 1012.0
20260906180517 79 298 0.0 2.6 0.00 0.00 0.00 66 1012.0
20260906175039 79 295 2.6 4.3 0.00 0.00 0.00 65 1012.0
20260906172013 80 336 0.0 0.0 0.00 0.00 0.00 63 1011.5
20260906170515 81 342 0.0 0.0 0.00 0.00 0.00 62 1011.4
20260906165050 81 355 0.0 0.0 0.00 0.00 0.00 61 1011.4
20260906163524 80 355 0.0 3.5 0.00 0.00 0.00 62 1011.3
20260906162032 79 21 0.0 3.5 0.00 0.00 0.00 64 1011.2
20260906160530 77 38 0.0 0.0 0.00 0.00 0.00 67 1011.1
20260906155022 77 38 0.0 0.0 0.00 0.00 0.00 67 1011.2
20260906153524 77 38 0.0 0.0 0.00 0.00 0.00 67 1011.2
20260906152017 77 38 0.0 0.0 0.00 0.00 0.00 67 1011.2
20260906150537 77 39 0.0 0.0 0.00 0.00 0.00 64 1011.3
20260906145032 77 38 0.0 0.0 0.00 0.00 0.00 64 1011.2
20260906143524 77 39 0.0 0.0 0.00 0.00 0.00 62 1010.9
20260906142034 77 39 0.0 0.0 0.00 0.00 0.00 60 1010.8
20260906140532 77 39 0.0 0.0 0.00 0.00 0.00 60 1010.7
20260906135025 76 39 0.0 0.0 0.00 0.00 0.00 59 1010.3
20260906133524 76 39 0.0 0.0 0.00 0.00 0.00 58 1010.1
20260906132047 76 38 0.0 0.0 0.00 0.00 0.00 56 1009.9
20260906130525 76 39 0.0 0.0 0.00 0.00 0.00 55 1010.0
20260906125039 77 39 0.0 0.0 0.00 0.00 0.00 54 1010.0
20260906123518 76 38 0.0 0.0 0.00 0.00 0.00 53 1009.9
20260906122016 76 38 0.0 0.0 0.00 0.00 0.00 51 1009.9
20260906120533 76 38 0.0 0.0 0.00 0.00 0.00 53 1010.0
20260906115032 76 38 0.0 3.5 0.00 0.00 0.00 53 1010.0
20260906113529 77 34 0.0 1.7 0.00 0.00 0.00 49 1010.0
20260906112025 77 33 0.0 0.0 0.00 0.00 0.00 48 1010.1
20260906110523 77 32 0.0 0.0 0.00 0.00 0.00 45 1010.1
20260906105021 77 32 0.0 0.0 0.00 0.00 0.00 46 1010.1
20260906103521 77 32 0.0 1.7 0.00 0.00 0.00 45 1010.1
20260906102017 77 28 0.0 0.0 0.00 0.00 0.00 44 1010.2
20260906100534 77 26 0.0 1.7 0.00 0.00 0.00 44 1010.2
20260906095031 76 26 0.0 0.9 0.00 0.00 0.00 49 1010.2
20260906093531 76 26 0.0 0.0 0.00 0.00 0.00 55 1010.3
20260906092024 76 26 0.0 0.0 0.00 0.00 0.00 57 1010.2
20260906090519 77 26 0.0 0.0 0.00 0.00 0.00 54 1010.3
20260906085033 77 26 0.0 0.0 0.00 0.00 0.00 52 1010.4
20260906083533 77 26 0.0 0.0 0.00 0.00 0.00 51 1010.5
20260906082027 77 26 0.0 0.0 0.00 0.00 0.00 49 1010.5
20260906080524 78 26 0.0 0.0 0.00 0.00 0.00 47 1010.6
20260906075034 78 26 0.0 0.0 0.00 0.00 0.00 43 1010.6
20260906073524 78 26 0.0 0.0 0.00 0.00 0.00 41 1010.8
20260906072016 79 26 0.0 0.0 0.00 0.00 0.00 42 1010.8
20260906070533 79 26 0.0 0.0 0.00 0.00 0.00 41 1010.6
20260906065043 79 26 0.0 0.0 0.00 0.00 0.00 39 1010.7
20260906063522 79 26 0.0 0.0 0.00 0.00 0.00 38 1010.8
20260906062020 79 26 0.0 0.0 0.00 0.00 0.00 38 1010.9
20260906060518 80 26 0.0 0.0 0.00 0.00 0.00 38 1010.8
20260906055042 79 26 0.0 0.0 0.00 0.00 0.00 37 1010.8
20260906053519 79 26 0.0 0.0 0.00 0.00 0.00 37 1010.8
20260906052039 80 26 0.0 0.0 0.00 0.00 0.00 36 1010.9
20260906050516 80 26 0.0 0.0 0.00 0.00 0.00 35 1010.9
20260906045055 80 26 0.0 0.0 0.00 0.00 0.00 34 1011.0
20260906043532 79 28 0.0 0.0 0.00 0.00 0.00 35 1011.0
20260906042030 80 30 0.0 0.0 0.00 0.00 0.00 33 1011.0
20260906040531 80 311 0.0 0.0 0.00 0.00 0.00 34 1010.9
20260906035028 80 312 0.0 0.0 0.00 0.00 0.00 35 1010.7
20260906033527 80 312 0.0 0.0 0.00 0.00 0.00 35 1010.6
20260906032019 80 312 0.0 0.0 0.00 0.00 0.00 35 1010.4
20260906030518 80 311 0.0 1.7 0.00 0.00 0.00 40 1010.4
20260906025015 81 304 0.0 0.0 0.00 0.00 0.00 45 1010.3
20260906023537 81 304 0.0 1.7 0.00 0.00 0.00 41 1010.3
20260906022015 82 303 0.0 0.9 0.00 0.00 0.00 38 1010.2
20260906020516 83 299 0.0 1.7 0.00 0.00 0.00 38 1010.1
20260906015034 84 281 0.0 6.1 0.00 0.00 0.00 40 1010.2
20260906013518 85 284 0.0 6.1 0.00 0.00 0.00 36 1010.2
20260906012018 87 281 0.9 6.1 0.00 0.00 0.00 33 1010.2
20260906010518 88 289 0.0 6.1 0.00 0.00 0.00 33 1010.1
20260906005055 88 287 0.9 4.3 0.00 0.00 0.00 36 1010.1
20260906003516 88 299 0.9 5.2 0.00 0.00 0.00 40 1010.1
20260906002032 88 298 1.7 7.8 0.00 0.00 0.00 42 1010.0
20260906000532 89 288 0.9 6.1 0.00 0.00 0.00 42 1010.1
20260905235025 90 275 2.6 8.7 0.00 0.00 0.00 39 1009.9
20260905233525 91 277 0.9 7.0 0.00 0.00 0.00 34 1010.0
20260905232024 92 307 1.7 5.2 0.00 0.00 0.00 28 1010.1
20260905230545 92 277 2.6 8.7 0.00 0.00 0.00 25 1010.0
20260905225040 92 248 1.7 8.7 0.00 0.00 0.00 29 1010.1
20260905223522 93 246 0.9 7.8 0.00 0.00 0.00 27 1010.1
20260905222040 93 246 0.9 4.3 0.00 0.00 0.00 26 1010.3
20260905220517 92 271 4.3 7.8 0.00 0.00 0.00 25 1010.5
20260905215031 92 206 0.0 7.8 0.00 0.00 0.00 28 1010.6
20260905213532 93 290 2.6 8.7 0.00 0.00 0.00 26 1010.7
20260905212029 93 269 0.9 8.7 0.00 0.00 0.00 27 1010.8
20260905210530 93 269 4.3 9.6 0.00 0.00 0.00 28 1010.8
20260905205026 93 246 0.9 8.7 0.00 0.00 0.00 28 1010.9
20260905203527 93 269 1.7 7.0 0.00 0.00 0.00 26 1011.1
20260905202023 93 253 1.7 7.8 0.00 0.00 0.00 24 1011.3
20260905200516 93 284 0.9 7.0 0.00 0.00 0.00 24 1011.4
20260905195033 92 261 0.9 7.8 0.00 0.00 0.00 25 1011.4